SCOUT X-1 DEB, 3927

Orbit data source: Space-Track

SCOUT X-1 DEB, 3927 is space debris in LEO originally from a launch on Thu, 16 Feb 1961 UTC launched from the Wallops Island (WLPIS). Debris objects in space refer to the collection of defunct objects orbiting the Earth. Examples of debris include non-operational satellites, rocket bodies, and fragments generated from explosions, collisions, or faulty payload assembly.

Loading next visibility...
Identifier
3927, 1961-004F
Orbit
LEO
Last TLE update
1 day ago
Origin
Manufacturer
Unknown
Mission
Spacecraft
Bus & Motor
Unknown
Mass
Unknown
Launch date (UTC)
1961-02-16 (64 years ago)
Launch vehicle
Unknown
Launch site
Wallops Island (WLPIS)
Object type
Payload
Rocket body
Debris
Shape & HBR
Unknown
Radar Cross Section
Small (<0.1 m²)

Expand to show TLE details & history

TLE from 1 day ago
0 SCOUT X-1 DEB
1 03927U 61004F   25199.17975550  .00019564  00000-0  16144-2 0  9990
2 03927  38.9747 143.5748 0185175 195.7909 163.7034 14.86013812 80499
Epoch: 2025-07-18T04:18Z
TLE epoch observation values (Epoch: 2025-07-18T04:18:50.875Z)
Latitude
0.00002°
Longitude
142.62792°
Altitude
734.119 km
Speed
7.423 km/s
True Right ascension
09h 34m 17s
True Declination
0° 00' 00"
Sunlit
Object was in daylight at epoch
Visualization orbit readout
Latitude
-11.16876°
Longitude
122.91724°
Altitude
708.435 km
Speed
7.451 km/s
Apparent Right ascension
07h 01m 13s
Apparent Declination
-26° 22' 27"
Sunlit
Object is in daylight
Visualization observer readout
Local Sidereal Time
17:13:48
Azimuth
293.044° NW
Elevation
-63.908°
Doppler factor
1
Orbital elements
Apogee altitude
742.432 km
Perigee altitude
483.516 km
Semi-major axis
6,991.111 km
Eccentricity
0.01852
Inclination
38.9747°
RAAN
143.5748°
Arg. of periapsis
195.7909°
True anomaly
164.28588°
Mean anomaly
163.7034°
Eccentric anomaly
163.99592°
Mean motion
3.71299 °/min
Orbital period
96.96 mins
BSTAR
0.0016144
Loading maneuver chart data...
Loading SW <> Apogee altitude chart data...
Loading historical data...
Loading historical data...
Loading historical data...
Loading historical data...
Loading historical data...
Loading historical data...
Loading historical data...
|